#timestamp,LO_Frequency,Hit,StdDev 
1508648415.3,286046996.5,N
1508648435.2,286046997.0,N
1508648455.9,286046998.6,N
1508648475.7,286046998.0,N
1508648495.6,286046997.5,N
1508648515.4,286047001.1,N
1508648535.2,286046997.0,N
1508648555.1,286046995.4,N
1508648556.0,286046995.4,N
1508648575.8,286046995.5,N
1508648595.6,286046998.1,N
1508648615.5,286046998.3,N
1508648635.3,286046997.8,N
1508648655.1,286046994.1,N
1508648675.9,286046989.2,Y
1508648695.7,286046983.9,P
1508648715.5,286046983.3,N
1508648735.4,286046983.3,N
1508648755.2,286046981.2,N
1508648775.1,286046977.6,Y
1508648776.0,286046977.6,P
1508648795.8,286046991.4,N
1508648815.6,286046989.5,N
1508648835.5,286046987.0,N
1508648855.3,286046989.0,N
1508648875.1,286046992.2,N
1508648895.9,286046995.9,N
1508648915.7,286046994.4,N
1508648935.5,286046992.2,N
1508648955.4,286046992.0,N
1508648975.2,286046991.2,N
1508648995.0,286046987.0,N
1508648995.9,286046987.0,N
1508649015.8,286046985.6,Y
1508649035.6,286046995.9,P
1508649055.4,286046996.1,N
1508649075.3,286046996.2,N
1508649095.1,286046997.3,N
1508649115.8,286046996.3,N
1508649135.7,286046995.8,N
1508649155.5,286046993.3,N
1508649175.3,286046993.3,N
1508649195.2,286046992.1,Y
1508649215.0,286046997.1,P
1508649215.9,286046997.1,N
1508649235.8,286046997.2,N
1508649255.6,286046995.3,Y
1508649275.4,286047000.9,P
1508649295.3,286046999.3,N
1508649315.1,286046999.0,N
1508649335.8,286046998.2,N
1508649355.7,286046999.9,N
1508649375.5,286046998.3,N
1508649395.3,286046998.8,N
1508649415.2,286047001.1,N
1508649435.0,286047000.7,N
1508649435.9,286047000.7,N
1508649455.7,286046998.5,N
1508649475.6,286046997.7,N
1508649495.4,286046999.2,N
1508649515.3,286047005.2,Y
1508649535.1,286047009.3,P
1508649536.0,286047009.3,N
1508649555.8,286047016.1,P
1508649575.7,286047018.2,Y
1508649595.5,286047009.8,P
1508649615.3,286047011.6,P
1508649635.2,286047014.3,P
1508649655.0,286047018.7,Y
1508649655.9,286047018.7,P
1508649675.8,286047008.3,N
1508649695.6,286047009.6,N
1508649715.4,286047010.0,N
1508649735.3,286047012.9,Y
1508649755.1,286047001.2,P
1508649775.8,286047002.4,N
1508649795.7,286047002.1,N
1508649815.5,286047002.3,N
1508649835.3,286046998.2,N
1508649855.2,286046998.0,N
1508649875.0,286046994.9,N
1508649875.9,286046994.9,N
1508649895.7,286046995.0,N
1508649915.6,286046997.4,N
1508649935.4,286046997.7,N
1508649955.2,286046999.1,N
1508649975.1,286046995.3,N
1508649976.0,286046995.3,N
1508649995.8,286046997.5,N
1508650015.6,286046999.1,N
1508650035.5,286046999.9,N
1508650055.3,286047000.2,N
1508650075.2,286047001.7,N
1508650095.9,286046998.5,N
1508650115.7,286047002.4,N
1508650135.6,286047002.0,N
1508650155.4,286047001.0,N
1508650175.2,286046998.1,N
1508650195.1,286046998.3,N
1508650196.0,286046998.3,N
1508650215.8,286046997.8,N
1508650235.6,286046999.2,N
1508650255.5,286047000.5,N
1508650275.3,286047001.8,N
1508650295.1,286047002.3,N
1508650315.9,286047002.6,N
1508650335.7,286047001.7,N
1508650355.5,286047002.5,N
1508650375.4,286047002.8,N
1508650395.2,286047000.4,N
1508650415.0,286046997.1,N
1508650415.9,286046997.1,N
1508650435.8,286047000.5,N
1508650455.6,286046996.5,N
1508650475.4,286046994.1,N
1508650495.3,286046991.5,Y
1508650515.1,286046988.0,P
1508650535.8,286046986.3,N
1508650555.7,286046982.4,P
1508650575.5,286046980.8,Y
1508650595.4,286046994.0,P
1508650615.2,286046994.2,N
1508650635.0,286046992.2,P
1508650635.9,286046992.2,Y
1508650655.8,286046996.6,P
1508650675.6,286046995.6,N
1508650695.4,286046997.7,N
1508650715.3,286046997.7,N
1508650735.1,286046999.6,N
1508650755.8,286046995.6,N
1508650775.7,286046995.4,N
1508650795.5,286046994.1,N
1508650815.4,286046990.2,Y
1508650835.2,286046995.2,P
1508650855.0,286046993.3,P
1508650855.9,286046993.3,P
1508650875.8,286046993.6,Y
1508650895.6,286047000.9,P
1508650915.4,286047000.1,N
1508650935.3,286047000.5,N
1508650955.1,286047002.6,N
1508650975.8,286047001.0,N
1508650995.7,286046998.9,N
1508651015.5,286046999.1,N
1508651035.3,286046998.8,N
1508651055.2,286046998.9,N
1508651075.0,286046998.4,N
1508651075.9,286046998.4,N
1508651095.7,286046996.5,N
1508651115.6,286046999.1,N
1508651135.4,286046997.4,N
1508651155.2,286046999.2,N
1508651175.1,286046996.5,N
1508651176.0,286046996.5,N
1508651195.8,286046998.9,N
1508651215.7,286046996.5,N
1508651235.5,286046997.0,N
1508651255.3,286046999.5,N
1508651275.2,286046999.2,N
1508651295.9,286046995.0,N
1508651315.7,286046995.0,N
1508651335.6,286046995.2,N
1508651355.4,286046999.7,N
1508651375.2,286047004.7,N
1508651395.1,286047011.9,Y
1508651396.0,286047011.9,P
1508651415.8,286047014.2,N
1508651435.6,286047019.3,N
1508651455.5,286047020.7,N
1508651475.3,286047026.6,Y
1508651495.1,286047011.3,P
1508651515.9,286047014.8,P
1508651535.7,286047014.4,P
1508651555.5,286047017.0,Y
1508651575.4,286047003.7,P
1508651595.2,286047005.1,N
1508651615.1,286047008.1,N
1508651616.0,286047008.1,N
1508651635.8,286047010.5,Y
1508651655.6,286047004.5,P
1508651675.5,286047006.0,P
1508651695.3,286047002.8,N
1508651715.1,286047003.7,N
1508651735.9,286046996.5,N
1508651755.7,286046996.5,N
1508651775.5,286046996.8,N
1508651795.4,286046996.2,N
1508651815.2,286046995.6,N
1508651835.0,286046995.0,N
1508651835.9,286046995.0,N
1508651855.8,286046995.0,N
1508651875.6,286046996.1,N
1508651895.4,286046995.9,N
1508651915.3,286046993.8,N
1508651935.1,286046994.5,N
1508651955.8,286046991.1,N
1508651975.7,286046991.4,N
1508651995.5,286046990.2,N
